[[{"header":{"parameterUnit":"m.s-1","parameterCategory":1,"la1":30.2991,"la2":30.254,"lo1":-89.0895,"lo2":-89.0444,"dy":0.0017,"dx":0.0017,"nx":28,"ny":28,"refTime":"2025-11-19T03:00:00:Z","depth":0,"parameterNumber":2,"parameterNumberName":"U-component_of_WINDS"},"data":[0,0,0,0,0,0,0,0,0,0,0,0,0,0,0,0,0,0,0,0,0,0,0,0,0,0,0,0,0,0,0,0,0,0,0,0,0,0,0,0,0,0,0,0,0,0,0,0,0,0,0,0,0,0,0,0,0,0,-0.6419,-0.6419,0,-0.6364,-0.6363,-0.6362,-0.6323,-0.6322,-0.6322,-0.6322,-0.6268,-0.6267,-0.6266,0,0,0,0,0,0,0,0,0,0,0,0,0,-0.6495,-0.6493,-0.6419,-0.6419,-0.6418,-0.6364,-0.6363,-0.6362,-0.6323,-0.6322,-0.6322,-0.6322,-0.6268,-0.6267,-0.6266,0,0,0,0,0,0,0,0,0,0,0,0,0,-0.6453,-0.6493,-0.6419,-0.6391,-0.6388,-0.6364,-0.6363,-0.6362,-0.6323,-0.6322,-0.6322,-0.6321,-0.6269,-0.6267,-0.6266,-0.6265,0,0,-0.626,-0.626,0,0,0,0,0,0,0,0,-0.6455,-0.645,-0.6396,-0.6393,-0.639,-0.6349,-0.637,-0.633,-0.6323,-0.6348,-0.6322,-0.6321,-0.6296,-0.6292,-0.6283,-0.6263,-0.626,-0.626,-0.6259,-0.6259,-0.6258,0,0,0,0,0,0,0,-0.6458,-0.6452,-0.6397,-0.6396,-0.6392,-0.6383,-0.6376,-0.6362,-0.6325,-0.6346,-0.6343,-0.6336,-0.6294,-0.6284,-0.6281,-0.626,-0.626,-0.6259,-0.6258,-0.6257,-0.6238,-0.6238,0,0,0,0,0,0,-0.6465,-0.6455,-0.6399,-0.6396,-0.6422,-0.6382,-0.6375,-0.6363,-0.6325,-0.6319,-0.6337,-0.6335,-0.6287,-0.6283,-0.6279,-0.6277,-0.6259,-0.6257,-0.6256,-0.6237,-0.6238,-0.6238,0,0,0,0,0,0,-0.6467,-0.646,-0.6401,-0.6424,-0.6416,-0.6381,-0.6368,-0.6362,-0.6352,-0.6319,-0.6312,-0.6334,-0.6287,-0.6281,-0.6269,-0.6274,-0.6256,-0.6255,-0.6237,-0.6238,-0.6238,-0.6272,0,0,0,0,0,0,-0.6469,-0.6461,-0.646,-0.6425,-0.6415,-0.6391,-0.6369,-0.6361,-0.6349,-0.6346,-0.6314,-0.6308,-0.6286,-0.6272,-0.6267,-0.6271,-0.6253,-0.6236,-0.6237,-0.6238,-0.627,-0.6273,-0.6276,0,0,0,0,0,-0.6472,-0.6472,-0.646,-0.6453,-0.6412,-0.6391,-0.6386,-0.636,-0.635,-0.6349,-0.6327,-0.6309,-0.6274,-0.6271,-0.6265,-0.6269,-0.6236,-0.6237,-0.6238,-0.6268,-0.6273,-0.6276,0,0,0,0,0,0,-0.6509,-0.6467,-0.6453,-0.6441,-0.642,-0.6385,-0.6382,-0.6365,-0.6347,-0.6345,-0.6314,-0.6307,-0.6298,-0.6282,-0.6279,-0.6268,-0.6253,-0.6253,-0.6278,-0.6282,-0.6285,-0.6289,-0.6252,0,0,0,0,0,-0.6516,-0.6502,-0.6466,-0.6459,-0.6449,-0.6418,-0.6408,-0.6389,-0.6366,-0.6357,-0.6335,-0.6315,-0.6299,-0.629,-0.6273,-0.6268,-0.6261,-0.6268,-0.6271,-0.6274,-0.6274,-0.6271,-0.6274,-0.6242,-0.6242,-0.6242,0,0,-0.653,-0.6505,-0.6498,-0.6466,-0.6447,-0.6434,-0.641,-0.6397,-0.6387,-0.6356,-0.6342,-0.6325,-0.6301,-0.6292,-0.6287,-0.6279,-0.6282,-0.6275,-0.6278,-0.6277,-0.6272,-0.6275,-0.6278,-0.6243,-0.6243,-0.6243,0,0,-0.6549,-0.6528,-0.6521,-0.6503,-0.6475,-0.6454,-0.6452,-0.6419,-0.6407,-0.6393,-0.6369,-0.6358,-0.6331,-0.6315,-0.6303,-0.6317,-0.63,-0.6313,-0.633,-0.6327,-0.6329,-0.6331,-0.6337,-0.6339,-0.6313,-0.6313,-0.6313,0,-0.657,-0.6548,-0.6519,-0.6507,-0.6494,-0.6465,-0.6457,-0.6442,-0.641,-0.6403,-0.6394,-0.636,-0.6342,-0.6329,-0.6332,-0.6324,-0.6322,-0.6316,-0.6331,-0.6333,-0.6334,-0.6339,-0.6341,-0.6315,-0.6315,-0.6315,-0.6314,0,-0.6576,-0.6561,-0.6559,-0.6528,-0.6515,-0.6506,-0.6477,-0.6467,-0.645,-0.6431,-0.6418,-0.6394,-0.6373,-0.6369,-0.6352,-0.6354,-0.635,-0.6336,-0.6321,-0.6339,-0.6343,-0.6345,-0.6317,-0.6317,-0.6316,-0.6316,0,0,-0.6616,-0.657,-0.657,-0.6556,-0.6523,-0.6512,-0.6502,-0.648,-0.6473,-0.6453,-0.6444,-0.6423,-0.6411,-0.6397,-0.6379,-0.6377,-0.639,-0.6363,-0.6362,-0.6369,-0.6391,-0.6401,-0.6404,-0.6378,-0.6379,-0.6379,-0.6393,0,-0.663,-0.6609,-0.6583,-0.6571,-0.6558,-0.653,-0.6521,-0.6501,-0.6483,-0.647,-0.6451,-0.6437,-0.6421,-0.6413,-0.6409,-0.6389,-0.6394,-0.6388,-0.6371,-0.6371,-0.6378,-0.6406,-0.6416,-0.6431,-0.6394,-0.6395,-0.6395,0,-0.6643,-0.6624,-0.661,-0.6579,-0.6573,-0.6565,-0.6544,-0.6532,-0.6509,-0.6496,-0.6482,-0.6462,-0.6451,-0.6438,-0.6423,-0.642,-0.6412,-0.6401,-0.6401,-0.6398,-0.6384,-0.6404,-0.6435,-0.6437,-0.6397,-0.6397,-0.6397,0,-0.6674,-0.6645,-0.6633,-0.6622,-0.6586,-0.6581,-0.6566,-0.6543,-0.6532,-0.6514,-0.6506,-0.6488,-0.6478,-0.6464,-0.6441,-0.6433,-0.6429,-0.6413,-0.6419,-0.642,-0.6419,-0.642,-0.6449,-0.6414,-0.6414,-0.6414,-0.6414,0,-0.6693,-0.6686,-0.6647,-0.6639,-0.6631,-0.6602,-0.6596,-0.6578,-0.6558,-0.6548,-0.6523,-0.6514,-0.6484,-0.6472,-0.6453,-0.6445,-0.644,-0.6431,-0.6426,-0.6433,-0.6434,-0.6427,-0.6425,-0.6415,-0.6415,-0.6414,-0.6414,0,-0.6726,-0.6699,-0.6684,-0.6651,-0.6643,-0.6638,-0.6611,-0.6603,-0.6584,-0.6572,-0.6567,-0.6538,-0.6523,-0.6498,-0.6476,-0.6464,-0.6458,-0.645,-0.6466,-0.6463,-0.647,-0.647,-0.6496,-0.6498,-0.6462,-0.6463,-0.6463,0,-0.6739,-0.6733,-0.6699,-0.669,-0.6675,-0.6661,-0.665,-0.6622,-0.6611,-0.6585,-0.6581,-0.6564,-0.6549,-0.6526,-0.6504,-0.6487,-0.6478,-0.6489,-0.6476,-0.6483,-0.6479,-0.6479,-0.6479,-0.6492,-0.6492,-0.6493,-0.6493,0,-0.6766,-0.6753,-0.6736,-0.6716,-0.6703,-0.6686,-0.6667,-0.6662,-0.663,-0.6619,-0.6603,-0.6591,-0.6569,-0.6552,-0.6532,-0.6518,-0.6501,-0.6497,-0.6498,-0.6505,-0.6514,-0.651,-0.6474,-0.6497,-0.6496,-0.6496,-0.6496,-0.6496,-0.6789,-0.6783,-0.6758,-0.6741,-0.6724,-0.6708,-0.6699,-0.6679,-0.6665,-0.6643,-0.6628,-0.6613,-0.6592,-0.6563,-0.655,-0.6539,-0.6531,-0.6531,-0.6532,-0.6532,-0.6535,-0.6516,-0.6535,-0.6535,-0.6535,-0.6535,-0.6534,0,-0.6815,-0.6797,-0.6782,-0.6757,-0.6744,-0.6728,-0.6707,-0.6698,-0.6684,-0.6665,-0.6651,-0.6633,-0.6617,-0.6593,-0.6576,-0.6571,-0.6563,-0.6568,-0.6568,-0.6565,-0.6543,-0.6544,-0.6575,-0.6575,-0.6575,-0.6575,-0.6575,-0.6575,-0.6827,-0.6815,-0.6799,-0.678,-0.6763,-0.6747,-0.6737,-0.6722,-0.6706,-0.6687,-0.6673,-0.6658,-0.6637,-0.6618,-0.6604,-0.6597,-0.6592,-0.66,-0.6591,-0.657,-0.6567,-0.6563,-0.6564,-0.6599,-0.6599,-0.6614,-0.6614,-0.6614]},{"header":{"parameterUnit":"m.s-1","parameterCategory":1,"la1":30.2991,"la2":30.254,"lo1":-89.0895,"lo2":-89.0444,"dy":0.0017,"dx":0.0017,"nx":28,"ny":28,"refTime":"2025-11-19T03:00:00:Z","depth":0,"parameterNumber":3,"parameterNumberName":"V-component_of_WINDS"},"data":[0,0,0,0,0,0,0,0,0,0,0,0,0,0,0,0,0,0,0,0,0,0,0,0,0,0,0,0,0,0,0,0,0,0,0,0,0,0,0,0,0,0,0,0,0,0,0,0,0,0,0,0,0,0,0,0,0,0,2.5946,2.5946,0,2.5892,2.5891,2.5891,2.5841,2.584,2.5839,2.5839,2.578,2.5779,2.5778,0,0,0,0,0,0,0,0,0,0,0,0,0,2.6006,2.6005,2.5946,2.5946,2.5945,2.5892,2.5891,2.5891,2.5841,2.584,2.5839,2.5839,2.5781,2.578,2.5778,0,0,0,0,0,0,0,0,0,0,0,0,0,2.5968,2.6005,2.5947,2.5914,2.591,2.5892,2.5891,2.589,2.5841,2.584,2.5839,2.5838,2.5781,2.578,2.5778,2.5787,0,0,2.5774,2.5773,0,0,0,0,0,0,0,0,2.5971,2.5966,2.5919,2.5916,2.5912,2.5872,2.5891,2.5856,2.5841,2.5867,2.5839,2.5838,2.5812,2.5807,2.5799,2.5784,2.5782,2.5773,2.5773,2.5772,2.5772,0,0,0,0,0,0,0,2.5973,2.5968,2.5925,2.5919,2.5914,2.5902,2.5895,2.5884,2.5845,2.5865,2.5861,2.5856,2.5809,2.5801,2.5797,2.5781,2.5774,2.5772,2.5771,2.5771,2.5773,2.5774,0,0,0,0,0,0,2.5981,2.5971,2.5927,2.5923,2.594,2.5901,2.5894,2.5886,2.5845,2.5838,2.5856,2.5853,2.5804,2.5799,2.5795,2.5804,2.5772,2.5771,2.577,2.5772,2.5773,2.5774,0,0,0,0,0,0,2.5983,2.5978,2.5929,2.5946,2.5939,2.5901,2.5892,2.5885,2.5877,2.5839,2.5831,2.5855,2.5803,2.5797,2.579,2.5801,2.577,2.5769,2.5771,2.5772,2.5773,2.5821,0,0,0,0,0,0,2.5985,2.5979,2.5982,2.5947,2.5938,2.5925,2.5893,2.5885,2.5875,2.587,2.5835,2.5828,2.5802,2.5793,2.5789,2.5799,2.5767,2.5769,2.5771,2.5773,2.5819,2.5824,2.5829,0,0,0,0,0,2.5987,2.5996,2.5982,2.5977,2.5941,2.5926,2.5921,2.5891,2.5876,2.5879,2.5854,2.583,2.5801,2.5792,2.5787,2.5797,2.5769,2.5771,2.5773,2.5816,2.5823,2.5829,0,0,0,0,0,0,2.6032,2.5991,2.5975,2.5973,2.5954,2.5917,2.592,2.5899,2.5882,2.5878,2.5841,2.5833,2.5831,2.5813,2.5804,2.5805,2.5781,2.5783,2.5816,2.5822,2.5828,2.5832,2.5766,0,0,0,0,0,2.6042,2.6034,2.5998,2.6,2.5991,2.5958,2.595,2.5928,2.5906,2.5897,2.5872,2.5851,2.5837,2.5829,2.5814,2.5816,2.5808,2.5821,2.5826,2.583,2.5832,2.5833,2.5838,2.5781,2.5781,2.5781,0,0,2.6062,2.6039,2.6035,2.6009,2.5991,2.5983,2.5951,2.5943,2.5936,2.5895,2.5888,2.5869,2.5843,2.5841,2.5839,2.5826,2.5846,2.5833,2.5837,2.5836,2.5836,2.5841,2.5846,2.5782,2.5782,2.5782,0,0,2.6095,2.6076,2.6077,2.606,2.6035,2.6012,2.6013,2.598,2.5967,2.5959,2.5929,2.592,2.5897,2.588,2.5868,2.5898,2.5875,2.5894,2.5921,2.5923,2.5927,2.5931,2.5942,2.5947,2.5895,2.5896,2.5896,0,2.6123,2.611,2.6079,2.6074,2.6064,2.6028,2.6028,2.6014,2.5984,2.5977,2.5964,2.5936,2.5915,2.591,2.5917,2.5909,2.5908,2.5897,2.5929,2.5933,2.5936,2.5946,2.595,2.5898,2.5898,2.5898,2.5897,0,2.6146,2.6138,2.6141,2.6115,2.6105,2.6103,2.6072,2.6065,2.6045,2.6025,2.6018,2.5993,2.5973,2.597,2.595,2.5962,2.5955,2.5936,2.5912,2.5944,2.5953,2.5957,2.5902,2.5901,2.59,2.5899,0,0,2.6204,2.6163,2.6165,2.6154,2.6124,2.6116,2.6113,2.6095,2.609,2.6072,2.6068,2.6051,2.6033,2.602,2.5998,2.6,2.6026,2.598,2.5979,2.599,2.6039,2.6054,2.6059,2.6011,2.6011,2.6012,2.6041,0,2.6232,2.6224,2.6198,2.6198,2.619,2.6158,2.6155,2.6136,2.6117,2.6108,2.6087,2.6075,2.6053,2.6045,2.6045,2.6023,2.6035,2.602,2.6007,2.6007,2.6014,2.6063,2.6078,2.6107,2.6045,2.6045,2.6046,0,2.6263,2.6248,2.6248,2.6221,2.6216,2.6214,2.6197,2.6188,2.6167,2.6153,2.614,2.6116,2.6111,2.609,2.6082,2.6072,2.6066,2.6054,2.6054,2.6052,2.6028,2.6062,2.6116,2.612,2.6051,2.605,2.605,0,2.6306,2.6286,2.6284,2.6275,2.6243,2.6242,2.6228,2.6206,2.6198,2.6183,2.6177,2.6161,2.6152,2.614,2.6112,2.6099,2.6108,2.6084,2.6097,2.6098,2.61,2.61,2.6153,2.6096,2.6095,2.6095,2.6095,0,2.634,2.6341,2.6303,2.6302,2.6303,2.6273,2.6274,2.6257,2.6239,2.6233,2.6204,2.62,2.6164,2.6155,2.6134,2.6132,2.6127,2.6116,2.6111,2.6119,2.6121,2.6114,2.6111,2.6097,2.6096,2.6096,2.6096,0,2.6387,2.6362,2.6358,2.6328,2.6321,2.6323,2.6298,2.6295,2.6276,2.627,2.6267,2.6236,2.6225,2.6197,2.6177,2.6163,2.6167,2.6156,2.6174,2.6171,2.6186,2.6185,2.6236,2.6242,2.6181,2.6181,2.6182,0,2.641,2.6411,2.6383,2.6378,2.6366,2.6358,2.635,2.6321,2.6313,2.6291,2.6291,2.6278,2.6266,2.625,2.6226,2.6212,2.62,2.622,2.6198,2.6207,2.6201,2.6202,2.6202,2.6224,2.6225,2.6226,2.6226,0,2.6454,2.6443,2.6433,2.6419,2.6411,2.6398,2.6384,2.6382,2.6349,2.6342,2.6332,2.6322,2.6305,2.6292,2.6275,2.626,2.6238,2.6234,2.6236,2.6244,2.6255,2.625,2.6188,2.6232,2.6231,2.6231,2.6231,2.623,2.6491,2.649,2.6471,2.6461,2.6448,2.6436,2.6433,2.6414,2.6405,2.6389,2.6372,2.6364,2.6344,2.6318,2.6306,2.6299,2.6287,2.629,2.6291,2.6292,2.6296,2.6257,2.6295,2.6295,2.6295,2.6295,2.6294,0,2.6534,2.652,2.6512,2.6494,2.6487,2.6468,2.6452,2.6447,2.644,2.6424,2.6414,2.6402,2.6391,2.6367,2.6353,2.6352,2.6342,2.6349,2.6349,2.6346,2.6307,2.6307,2.6358,2.6358,2.6358,2.6358,2.6358,2.6358,2.6555,2.6554,2.654,2.6533,2.6519,2.6512,2.6504,2.6493,2.6481,2.647,2.646,2.6445,2.6426,2.6411,2.64,2.6393,2.639,2.6401,2.6391,2.6355,2.6349,2.6343,2.6342,2.6401,2.6401,2.6431,2.6431,2.6431]}]]